"Pseudo-MPEC" for P10HjmO

Created 2018 Apr 23 1:18:05 UT using Find_Orb

Click here for an explanation of pseudo-MPECs

 
 Astrometry: 
     P10HjmO  C2018 04 134LAstrometry!c=i0hg@W7[Sn(w%EGSov-XdVvbEc.?Rbt8s1sLYF51
     P10HjmO  C2018 04 13Iw[%v(3k%@ICQy+vIredacted;*uU]);see0nh\Nj_KeH.x9gr=1F51
     P10HjmO  C2018 04 13#pyrs]nO`+XUMCR!hlLnWN/hD[+U_!%^NyBBN\'`7w34*hvNEOCPF51

Station data:
(F51) Pan-STARRS 1, Haleakala  (N20.707235 W156.255910)  US/Hawaii.
   Observers N. Primak, A. Schultz, S. Watters, J. Thiel, T. Goggia. Measurer
   PS1 Science Consortium. 1.8-m Ritchey-Chrétien + CCD.

Orbital elements:  P10HjmO
   Perihelion 2018 Mar 23.207135 +/- 42.7 TT =  4:58:16 (JD 2458200.707135)
Epoch 2018 Apr 13.0 TT = JDT 2458221.5   Earth MOID: 0.0619   AutoNEOCP
M  18.31914 +/- 44                  (J2000 ecliptic)
n   0.88103057 +/- 0.562            Peri.  177.20384 +/- 80
a   1.07764419 +/- 0.458            Node     2.96815 +/- 38
e   0.0174363 +/- 0.257             Incl.   12.26611 +/- 24
P   1.12/408.60d           H 24.1   G  0.15   U 12.4  SR
q 1.05885399 +/- 0.299    Q 1.09643439 +/- 28.3
From 3 observations 2018 Apr. 13 (50.5 min); mean residual 0".02
Residuals in arcseconds: 
180413 F51  .00   .01-    180413 F51  .01-  .04+    180413 F51  .00   .02-    

Ephemerides (geocentric):
Date (UTC) HH   RA              Dec         delta   r     elong  mag " sig PA
---- -- -- --  ------------   ------------  ------ ------ -----  --- ---- ---
2018 04 23 01  09 05 46.009   -29 32 03.10  .13950 1.0610 109.9 22.2  23d  15
2018 04 23 02  09 05 45.319   -29 33 49.25  .13962 1.0610 109.9 22.2  23d  15
2018 04 23 03  09 05 44.637   -29 35 35.23  .13974 1.0610 109.9 22.2  23d  15
2018 04 23 04  09 05 43.964   -29 37 21.03  .13987 1.0610 109.8 22.2  23d  15
2018 04 23 05  09 05 43.300   -29 39 06.65  .13999 1.0610 109.8 22.2  23d  15
2018 04 23 06  09 05 42.644   -29 40 52.09  .14012 1.0610 109.8 22.3  23d  15
2018 04 23 07  09 05 41.998   -29 42 37.36  .14024 1.0610 109.7 22.3  23d  15
2018 04 23 08  09 05 41.361   -29 44 22.45  .14036 1.0610 109.7 22.3  24d  15
2018 04 23 09  09 05 40.732   -29 46 07.36  .14049 1.0610 109.7 22.3  24d  15
2018 04 23 10  09 05 40.112   -29 47 52.10  .14061 1.0610 109.7 22.3  24d  15
2018 04 23 11  09 05 39.501   -29 49 36.66  .14074 1.0611 109.6 22.3  24d  15
2018 04 23 12  09 05 38.898   -29 51 21.04  .14086 1.0611 109.6 22.3  24d  15
2018 04 23 13  09 05 38.305   -29 53 05.25  .14099 1.0611 109.6 22.3  24d  15
2018 04 23 14  09 05 37.720   -29 54 49.29  .14111 1.0611 109.5 22.3  24d  15
2018 04 23 15  09 05 37.144   -29 56 33.16  .14123 1.0611 109.5 22.3  24d  15
2018 04 23 16  09 05 36.576   -29 58 16.85  .14136 1.0611 109.5 22.3  24d  15
2018 04 23 17  09 05 36.017   -30 00 00.37  .14148 1.0611 109.5 22.3  24d  16
2018 04 23 18  09 05 35.467   -30 01 43.72  .14161 1.0611 109.4 22.3  24d  16
2018 04 23 19  09 05 34.926   -30 03 26.89  .14173 1.0611 109.4 22.3  24d  16
2018 04 23 20  09 05 34.393   -30 05 09.90  .14185 1.0611 109.4 22.3  24d  16
2018 04 23 21  09 05 33.868   -30 06 52.73  .14198 1.0611 109.4 22.3  24d  16
2018 04 23 22  09 05 33.353   -30 08 35.40  .14210 1.0611 109.3 22.3  24d  16
2018 04 23 23  09 05 32.845   -30 10 17.89  .14223 1.0611 109.3 22.3  24d  16
2018 04 24 00  09 05 32.347   -30 12 00.22  .14235 1.0611 109.3 22.3  24d  16
2018 04 24 01  09 05 31.857   -30 13 42.38  .14247 1.0611 109.2 22.3  24d  16
2018 04 24 02  09 05 31.375   -30 15 24.37  .14260 1.0611 109.2 22.3  24d  16
2018 04 24 03  09 05 30.902   -30 17 06.19  .14272 1.0611 109.2 22.3  24d  15
2018 04 24 04  09 05 30.437   -30 18 47.85  .14285 1.0612 109.2 22.3  24d  15
2018 04 24 05  09 05 29.981   -30 20 29.34  .14297 1.0612 109.1 22.3  24d  15
2018 04 24 06  09 05 29.533   -30 22 10.66  .14310 1.0612 109.1 22.3  24d  15
2018 04 24 07  09 05 29.093   -30 23 51.82  .14322 1.0612 109.1 22.3  24d  15
2018 04 24 08  09 05 28.662   -30 25 32.81  .14334 1.0612 109.1 22.3  24d  15
2018 04 24 09  09 05 28.240   -30 27 13.64  .14347 1.0612 109.0 22.3  24d  15
2018 04 24 10  09 05 27.825   -30 28 54.31  .14359 1.0612 109.0 22.3  24d  15
2018 04 24 11  09 05 27.419   -30 30 34.81  .14372 1.0612 109.0 22.3  24d  14
2018 04 24 12  09 05 27.022   -30 32 15.15  .14384 1.0612 108.9 22.3  25d  14
2018 04 24 13  09 05 26.632   -30 33 55.32  .14396 1.0612 108.9 22.3  25d  13
2018 04 24 14  09 05 26.251   -30 35 35.33  .14409 1.0612 108.9 22.3  25d  13
2018 04 24 15  09 05 25.879   -30 37 15.18  .14421 1.0612 108.9 22.3  25d  12
2018 04 24 16  09 05 25.514   -30 38 54.87  .14434 1.0612 108.8 22.3  25d  11
2018 04 24 17  09 05 25.158   -30 40 34.40  .14446 1.0612 108.8 22.3  26d  10
2018 04 24 18  09 05 24.809   -30 42 13.77  .14458 1.0612 108.8 22.3  26d   9
2018 04 24 19  09 05 24.470   -30 43 52.98  .14471 1.0612 108.8 22.3  26d   8
2018 04 24 20  09 05 24.138   -30 45 32.03  .14483 1.0612 108.7 22.3  27d   7
2018 04 24 21  09 05 23.814   -30 47 10.92  .14496 1.0613 108.7 22.3  27d   7
2018 04 24 22  09 05 23.499   -30 48 49.65  .14508 1.0613 108.7 22.4  27d   7
2018 04 24 23  09 05 23.191   -30 50 28.22  .14520 1.0613 108.7 22.4  27d   6
2018 04 25 00  09 05 22.892   -30 52 06.63  .14533 1.0613 108.6 22.4  28d   6